RYR3YV LIBR-EPWR

Flight info

Callsign RYR3YV
Flight time 1h 44m
Altitude 38000
Route TROT6J TROTA DCT CRAYE DCT BEVIS DCT GEBNI DCT VEBAL DCT MAKAL DCT REGLI L617 EPOPA EPOP1P
Aircraft B738/M-SDE2E3FGHIRWXY/LB1

Departure

Time 2026-04-21 20:27
Airport Brindisi Airport (LIBR)

Arrival

Time 2026-04-21 22:12
Airport Copernicus Wrocław Airport (EPWR)
Time Latitude Longitude Altitude Speed Heading
2026-04-21 19:56 40.65737 17.93986 55 ft 0 kts
2026-04-21 20:23 40.65739 17.93995 55 ft 1 kts 91°
2026-04-21 20:23 40.65730 17.94019 55 ft 5 kts 115°
2026-04-21 20:24 40.65705 17.94088 50 ft 9 kts 115°
2026-04-21 20:24 40.65707 17.94154 55 ft 8 kts 57°
2026-04-21 20:24 40.65739 17.94211 50 ft 9 kts 52°
2026-04-21 20:24 40.65783 17.94286 55 ft 13 kts 52°
2026-04-21 20:25 40.65843 17.94389 55 ft 13 kts 52°
2026-04-21 20:25 40.65872 17.94439 55 ft 5 kts 53°
2026-04-21 20:25 40.65895 17.94479 51 ft 5 kts 53°
2026-04-21 20:25 40.65917 17.94518 51 ft 5 kts 53°
2026-04-21 20:26 40.65938 17.94552 51 ft 4 kts 43°
2026-04-21 20:26 40.65956 17.94546 50 ft 2 kts 315°
2026-04-21 20:26 40.65966 17.94535 48 ft 2 kts 317°
2026-04-21 20:26 40.66008 17.94484 52 ft 26 kts 317°
2026-04-21 20:27 40.66301 17.94125 52 ft 88 kts 317°
2026-04-21 20:27 40.66887 17.93407 55 ft 140 kts 317°
2026-04-21 20:27 40.67678 17.92467 316 ft 156 kts 317°
2026-04-21 20:27 40.68501 17.91508 738 ft 161 kts 319°
2026-04-21 20:28 40.69346 17.90504 1266 ft 164 kts 319°
2026-04-21 20:28 40.70173 17.89489 1871 ft 167 kts 319°
2026-04-21 20:28 40.71135 17.88432 2104 ft 194 kts 334°
2026-04-21 20:28 40.72516 17.88193 2363 ft 212 kts 12°
2026-04-21 20:29 40.73834 17.89166 2627 ft 228 kts 49°
2026-04-21 20:29 40.74771 17.90922 3045 ft 241 kts 56°
2026-04-21 20:29 40.75695 17.92801 3628 ft 247 kts 57°
2026-04-21 20:29 40.76623 17.94718 4326 ft 249 kts 57°
2026-04-21 20:30 40.77552 17.96642 5031 ft 251 kts 56°
2026-04-21 20:30 40.78630 17.98425 5740 ft 248 kts 32°
2026-04-21 20:30 40.80180 17.99266 6432 ft 239 kts
2026-04-21 20:30 40.81821 17.99736 7028 ft 243 kts
2026-04-21 20:31 40.83484 18.00205 7657 ft 246 kts
2026-04-21 20:31 40.85164 18.00683 8296 ft 248 kts
2026-04-21 20:31 40.86890 18.01169 8656 ft 264 kts
2026-04-21 20:31 40.88756 18.01691 8935 ft 282 kts
2026-04-21 20:32 40.90698 18.02242 9492 ft 288 kts
2026-04-21 20:32 40.92642 18.02798 10139 ft 291 kts
2026-04-21 20:32 40.94684 18.03379 10359 ft 311 kts
2026-04-21 20:32 40.96864 18.04000 10543 ft 330 kts
2026-04-21 20:33 40.99143 18.04654 10977 ft 339 kts
2026-04-21 20:33 41.01461 18.05322 11590 ft 342 kts
2026-04-21 20:33 41.03797 18.05993 12261 ft 345 kts
2026-04-21 20:33 41.06151 18.06657 12921 ft 347 kts
2026-04-21 20:34 41.08545 18.07119 13583 ft 349 kts
2026-04-21 20:34 41.10969 18.07451 14208 ft 351 kts
2026-04-21 20:34 41.13412 18.07754 14832 ft 354 kts
2026-04-21 20:34 41.15874 18.08062 15490 ft 356 kts
2026-04-21 20:35 41.18353 18.08384 16123 ft 360 kts
2026-04-21 20:35 41.20860 18.08721 16710 ft 364 kts
2026-04-21 20:35 41.23391 18.09071 17339 ft 367 kts
2026-04-21 20:35 41.25941 18.09428 17971 ft 370 kts
2026-04-21 20:36 41.28514 18.09792 18532 ft 373 kts
2026-04-21 20:36 41.31100 18.10159 19108 ft 374 kts
2026-04-21 20:36 41.33691 18.10529 19718 ft 374 kts 360°
2026-04-21 20:36 41.35407 18.10774 20113 ft 375 kts 360°
2026-04-21 20:37 41.38007 18.11145 20683 ft 376 kts 359°
2026-04-21 20:37 41.40614 18.11516 21224 ft 378 kts 359°
2026-04-21 20:37 41.43235 18.11890 21775 ft 380 kts 359°
2026-04-21 20:37 41.45866 18.12265 22316 ft 381 kts 359°
2026-04-21 20:38 41.48508 18.12642 22852 ft 383 kts 359°
2026-04-21 20:38 41.51161 18.13022 23354 ft 385 kts 359°
2026-04-21 20:38 41.53828 18.13417 23803 ft 387 kts 359°
2026-04-21 20:38 41.56366 18.13799 24173 ft 389 kts 359°
2026-04-21 20:39 41.59063 18.14207 24577 ft 392 kts 359°
2026-04-21 20:39 41.61779 18.14618 24952 ft 394 kts 359°
2026-04-21 20:39 41.64514 18.15031 25321 ft 397 kts 359°
2026-04-21 20:39 41.67265 18.15448 25686 ft 399 kts 359°
2026-04-21 20:40 41.70033 18.15866 26038 ft 402 kts 359°
2026-04-21 20:40 41.72819 18.16288 26400 ft 404 kts 359°
2026-04-21 20:40 41.75619 18.16711 26748 ft 406 kts 359°
2026-04-21 20:40 41.78436 18.17138 27116 ft 409 kts 359°
2026-04-21 20:41 41.81272 18.17569 27443 ft 411 kts 359°
2026-04-21 20:41 41.84125 18.18002 27780 ft 413 kts 359°
2026-04-21 20:41 41.86987 18.18438 28112 ft 415 kts 359°
2026-04-21 20:41 41.89865 18.18875 28429 ft 417 kts 359°
2026-04-21 20:42 41.92648 18.19288 28727 ft 418 kts 357°
2026-04-21 20:42 41.95541 18.19397 29018 ft 414 kts 350°
2026-04-21 20:42 41.98415 18.19203 29377 ft 414 kts 349°
2026-04-21 20:42 42.01282 18.18956 29660 ft 415 kts 349°
2026-04-21 20:43 42.04172 18.18699 29936 ft 417 kts 349°
2026-04-21 20:43 42.07076 18.18452 30181 ft 420 kts 349°
2026-04-21 20:43 42.09998 18.18216 30400 ft 422 kts 349°
2026-04-21 20:43 42.12935 18.17992 30653 ft 423 kts 349°
2026-04-21 20:44 42.15872 18.17776 30974 ft 422 kts 349°
2026-04-21 20:44 42.18801 18.17566 31335 ft 422 kts 349°
2026-04-21 20:44 42.21732 18.17355 31576 ft 423 kts 349°
2026-04-21 20:44 42.24672 18.17144 31831 ft 423 kts 349°
2026-04-21 20:45 42.27610 18.16933 32130 ft 423 kts 349°
2026-04-21 20:45 42.30545 18.16721 32416 ft 422 kts 349°
2026-04-21 20:45 42.33480 18.16509 32668 ft 423 kts 349°
2026-04-21 20:45 42.36381 18.16299 32914 ft 423 kts 349°
2026-04-21 20:46 42.39358 18.16083 33224 ft 423 kts 349°
2026-04-21 20:46 42.42256 18.15873 33486 ft 423 kts 349°
2026-04-21 20:46 42.45195 18.15659 33716 ft 423 kts 349°
2026-04-21 20:46 42.48134 18.15445 33963 ft 423 kts 349°
2026-04-21 20:47 42.51077 18.15231 34184 ft 423 kts 349°
2026-04-21 20:47 42.54012 18.15018 34417 ft 422 kts 349°
2026-04-21 20:47 42.56947 18.14804 34632 ft 422 kts 349°
2026-04-21 20:47 42.59878 18.14590 34886 ft 421 kts 349°
2026-04-21 20:48 42.62802 18.14377 35108 ft 421 kts 349°
2026-04-21 20:48 42.65727 18.14162 35279 ft 421 kts 349°
2026-04-21 20:48 42.68658 18.13947 35468 ft 422 kts 349°
2026-04-21 20:48 42.71448 18.13743 35670 ft 421 kts 349°
2026-04-21 20:49 42.74375 18.13528 35867 ft 421 kts 349°
2026-04-21 20:49 42.77296 18.13314 36055 ft 422 kts 349°
2026-04-21 20:49 42.80236 18.13080 36198 ft 421 kts 348°
2026-04-21 20:49 42.83119 18.12554 36354 ft 417 kts 343°
2026-04-21 20:50 42.85968 18.11860 36572 ft 415 kts 342°
2026-04-21 20:50 42.88807 18.11115 36736 ft 415 kts 342°
2026-04-21 20:50 42.91647 18.10360 36869 ft 416 kts 342°
2026-04-21 20:50 42.94489 18.09612 37046 ft 416 kts 342°
2026-04-21 20:51 42.97331 18.08878 37241 ft 416 kts 342°
2026-04-21 20:51 43.00171 18.08153 37328 ft 418 kts 343°
2026-04-21 20:51 43.03033 18.07430 37455 ft 419 kts 343°
2026-04-21 20:51 43.05897 18.06711 37647 ft 418 kts 343°
2026-04-21 20:52 43.08758 18.05996 37812 ft 418 kts 343°
2026-04-21 20:52 43.11619 18.05281 37935 ft 418 kts 343°
2026-04-21 20:52 43.17368 18.03842 38027 ft 422 kts 343°
2026-04-21 20:53 43.23135 18.02397 38007 ft 420 kts 343°
2026-04-21 20:53 43.28886 18.00954 37986 ft 419 kts 343°
2026-04-21 20:54 43.34610 17.99514 37996 ft 418 kts 343°
2026-04-21 20:54 43.40139 17.98119 37995 ft 416 kts 343°
2026-04-21 20:55 43.45818 17.96684 38029 ft 415 kts 343°
2026-04-21 20:55 43.51495 17.95246 38013 ft 414 kts 343°
2026-04-21 20:56 43.56997 17.93847 38056 ft 414 kts 343°
2026-04-21 20:56 43.62683 17.92400 38049 ft 416 kts 342°
2026-04-21 20:57 43.68394 17.90946 38044 ft 417 kts 343°
2026-04-21 20:57 43.74108 17.89490 38060 ft 418 kts 343°
2026-04-21 20:58 43.79830 17.88026 38073 ft 419 kts 343°
2026-04-21 20:58 43.85567 17.86556 38058 ft 419 kts 342°
2026-04-21 20:59 43.91292 17.85089 38065 ft 418 kts 342°
2026-04-21 20:59 43.96829 17.83667 38078 ft 417 kts 342°
2026-04-21 21:00 44.02521 17.82198 38078 ft 416 kts 343°
2026-04-21 21:00 44.08200 17.80733 38093 ft 414 kts 342°
2026-04-21 21:01 44.13865 17.79267 38090 ft 414 kts 342°
2026-04-21 21:01 44.19534 17.77797 38109 ft 415 kts 343°
2026-04-21 21:02 44.25216 17.76320 38099 ft 416 kts 343°
2026-04-21 21:02 44.30905 17.74840 38102 ft 416 kts 343°
2026-04-21 21:03 44.36603 17.73354 38105 ft 417 kts 343°
2026-04-21 21:03 44.42306 17.71865 38110 ft 417 kts 343°
2026-04-21 21:04 44.47971 17.70378 38096 ft 417 kts 343°
2026-04-21 21:04 44.53671 17.68884 38105 ft 417 kts 343°
2026-04-21 21:05 44.59373 17.67388 38122 ft 417 kts 343°
2026-04-21 21:05 44.65076 17.65887 38118 ft 417 kts 343°
2026-04-21 21:06 44.70789 17.64379 38113 ft 418 kts 343°
2026-04-21 21:06 44.76511 17.62866 38116 ft 419 kts 343°
2026-04-21 21:07 44.82251 17.61344 38110 ft 421 kts 344°
2026-04-21 21:07 44.88010 17.59816 38115 ft 422 kts 344°
2026-04-21 21:08 44.93779 17.58282 38123 ft 422 kts 344°
2026-04-21 21:08 44.99561 17.56741 38132 ft 423 kts 344°
2026-04-21 21:09 45.05343 17.55196 38110 ft 425 kts 344°
2026-04-21 21:09 45.11158 17.53640 38112 ft 426 kts 344°
2026-04-21 21:10 45.16987 17.52077 38119 ft 426 kts 344°
2026-04-21 21:10 45.22819 17.50510 38135 ft 427 kts 345°
2026-04-21 21:11 45.28653 17.48939 38121 ft 427 kts 345°
2026-04-21 21:11 45.34447 17.47376 38115 ft 427 kts 345°
2026-04-21 21:12 45.40274 17.45800 38122 ft 426 kts 345°
2026-04-21 21:12 45.46090 17.44224 38126 ft 425 kts 345°
2026-04-21 21:13 45.51901 17.42646 38123 ft 424 kts 345°
2026-04-21 21:13 45.57699 17.41068 38122 ft 424 kts 345°
2026-04-21 21:14 45.63491 17.39488 38154 ft 424 kts 345°
2026-04-21 21:14 45.69287 17.37903 38135 ft 424 kts 345°
2026-04-21 21:15 45.75083 17.36316 38128 ft 424 kts 345°
2026-04-21 21:15 45.80874 17.34726 38127 ft 424 kts 345°
2026-04-21 21:16 45.86665 17.33133 38140 ft 424 kts 345°
2026-04-21 21:16 45.92462 17.31535 38131 ft 424 kts 345°
2026-04-21 21:17 45.98297 17.30147 38120 ft 429 kts 353°
2026-04-21 21:17 46.04155 17.30791 38142 ft 436 kts
2026-04-21 21:18 46.10144 17.32356 38126 ft 438 kts
2026-04-21 21:18 46.16143 17.33947 38131 ft 439 kts
2026-04-21 21:19 46.22152 17.35498 38130 ft 439 kts
2026-04-21 21:19 46.28175 17.37029 38137 ft 440 kts
2026-04-21 21:20 46.34215 17.38560 38134 ft 441 kts
2026-04-21 21:20 46.40257 17.40095 38133 ft 441 kts
2026-04-21 21:21 46.45287 17.41377 38137 ft 442 kts
2026-04-21 21:21 46.51340 17.42922 38147 ft 442 kts
2026-04-21 21:22 46.57404 17.44474 38142 ft 442 kts
2026-04-21 21:22 46.63464 17.46029 38147 ft 442 kts
2026-04-21 21:23 46.69520 17.47586 38154 ft 442 kts
2026-04-21 21:23 46.75574 17.49146 38140 ft 441 kts
2026-04-21 21:24 46.81617 17.50707 38139 ft 440 kts
2026-04-21 21:24 46.87644 17.52267 38169 ft 440 kts
2026-04-21 21:25 46.93630 17.53820 38143 ft 439 kts
2026-04-21 21:25 46.99647 17.55385 38141 ft 439 kts
2026-04-21 21:26 47.05638 17.56946 38146 ft 439 kts
2026-04-21 21:26 47.11646 17.58515 38158 ft 439 kts
2026-04-21 21:27 47.17659 17.60089 38153 ft 439 kts
2026-04-21 21:27 47.23667 17.61666 38159 ft 439 kts
2026-04-21 21:28 47.29676 17.63247 38174 ft 439 kts
2026-04-21 21:29 47.38693 17.65625 38153 ft 439 kts
2026-04-21 21:29 47.44703 17.67215 38156 ft 438 kts
2026-04-21 21:30 47.50703 17.68807 38156 ft 438 kts
2026-04-21 21:30 47.56700 17.70401 38158 ft 438 kts
2026-04-21 21:31 47.62511 17.71949 38161 ft 437 kts
2026-04-21 21:31 47.68499 17.73548 38158 ft 437 kts
2026-04-21 21:32 47.74447 17.75139 38159 ft 437 kts
2026-04-21 21:32 47.80476 17.76757 38158 ft 437 kts
2026-04-21 21:33 47.86421 17.78355 38158 ft 437 kts
2026-04-21 21:33 47.92407 17.79969 38170 ft 437 kts
2026-04-21 21:34 47.98394 17.81586 38155 ft 437 kts
2026-04-21 21:34 48.04374 17.83205 38156 ft 438 kts
2026-04-21 21:35 48.10364 17.84831 38155 ft 438 kts
2026-04-21 21:35 48.16360 17.86462 38167 ft 438 kts
2026-04-21 21:36 48.22362 17.88099 38164 ft 438 kts
2026-04-21 21:36 48.28361 17.89739 38167 ft 439 kts
2026-04-21 21:37 48.34366 17.91385 38171 ft 439 kts
2026-04-21 21:37 48.40378 17.93036 38156 ft 439 kts
2026-04-21 21:38 48.46380 17.94689 38165 ft 438 kts
2026-04-21 21:38 48.52376 17.96344 38185 ft 438 kts
2026-04-21 21:39 48.58367 17.98002 38184 ft 437 kts
2026-04-21 21:39 48.64351 17.99661 38183 ft 437 kts
2026-04-21 21:40 48.70327 18.01323 38184 ft 437 kts
2026-04-21 21:40 48.76261 18.02977 38189 ft 436 kts
2026-04-21 21:41 48.82233 18.04645 38188 ft 437 kts
2026-04-21 21:41 48.88204 18.06317 38180 ft 436 kts
2026-04-21 21:42 48.94168 18.07991 38179 ft 436 kts
2026-04-21 21:42 49.00111 18.09664 38206 ft 435 kts
2026-04-21 21:43 49.06062 18.11343 38186 ft 435 kts
2026-04-21 21:43 49.12011 18.13025 38186 ft 435 kts
2026-04-21 21:44 49.17955 18.14710 38189 ft 434 kts
2026-04-21 21:44 49.23908 18.16288 38185 ft 434 kts
2026-04-21 21:45 49.29898 18.15904 38207 ft 431 kts 353°
2026-04-21 21:45 49.35863 18.14828 38182 ft 431 kts 353°
2026-04-21 21:46 49.41824 18.13779 38190 ft 431 kts 353°
2026-04-21 21:46 49.47789 18.12775 38184 ft 431 kts 353°
2026-04-21 21:47 49.53796 18.11779 37642 ft 437 kts 354°
2026-04-21 21:47 49.56797 18.11281 37225 ft 432 kts 354°
2026-04-21 21:47 49.59734 18.10793 36834 ft 428 kts 354°
2026-04-21 21:47 49.62682 18.10302 36437 ft 424 kts 354°
2026-04-21 21:48 49.65605 18.09815 36054 ft 421 kts 354°
2026-04-21 21:48 49.68503 18.09331 35652 ft 418 kts 354°
2026-04-21 21:48 49.71382 18.08850 35245 ft 415 kts 354°
2026-04-21 21:48 49.74238 18.08371 34863 ft 412 kts 355°
2026-04-21 21:49 49.77082 18.07895 34468 ft 409 kts 355°
2026-04-21 21:49 49.79906 18.07421 34047 ft 407 kts 355°
2026-04-21 21:49 49.82713 18.06949 33594 ft 404 kts 355°
2026-04-21 21:49 49.85501 18.06480 33171 ft 401 kts 355°
2026-04-21 21:50 49.88264 18.06015 32776 ft 398 kts 355°
2026-04-21 21:50 49.91004 18.05553 32386 ft 394 kts 355°
2026-04-21 21:50 49.93703 18.04874 31981 ft 393 kts 347°
2026-04-21 21:50 49.96303 18.03530 31496 ft 394 kts 341°
2026-04-21 21:51 49.98853 18.02007 31115 ft 391 kts 341°
2026-04-21 21:51 50.01381 18.00528 30730 ft 388 kts 342°
2026-04-21 21:51 50.03904 17.99079 30349 ft 385 kts 342°
2026-04-21 21:51 50.06412 17.97637 29922 ft 383 kts 342°
2026-04-21 21:52 50.08896 17.96205 29523 ft 378 kts 342°
2026-04-21 21:52 50.11349 17.94787 29128 ft 374 kts 342°
2026-04-21 21:52 50.13774 17.93384 28748 ft 370 kts 342°
2026-04-21 21:52 50.16173 17.91996 28370 ft 366 kts 342°
2026-04-21 21:53 50.18550 17.90619 27994 ft 362 kts 342°
2026-04-21 21:53 50.20819 17.88992 27789 ft 358 kts 331°
2026-04-21 21:53 50.22797 17.86666 27497 ft 356 kts 321°
2026-04-21 21:53 50.24626 17.84006 26837 ft 363 kts 320°
2026-04-21 21:54 50.26468 17.81271 26206 ft 368 kts 320°
2026-04-21 21:54 50.28329 17.78494 25571 ft 372 kts 320°
2026-04-21 21:54 50.30215 17.75685 24941 ft 376 kts 320°
2026-04-21 21:54 50.32121 17.72855 24347 ft 380 kts 320°
2026-04-21 21:55 50.34048 17.69999 23748 ft 383 kts 321°
2026-04-21 21:55 50.35991 17.67125 23041 ft 386 kts 320°
2026-04-21 21:55 50.37949 17.64229 22355 ft 388 kts 320°
2026-04-21 21:55 50.39915 17.61320 21689 ft 390 kts 320°
2026-04-21 21:56 50.41888 17.58399 21035 ft 391 kts 320°
2026-04-21 21:56 50.43867 17.55465 20385 ft 392 kts 320°
2026-04-21 21:56 50.45847 17.52527 19752 ft 392 kts 320°
2026-04-21 21:56 50.47829 17.49583 19134 ft 392 kts 320°
2026-04-21 21:57 50.49810 17.46637 18522 ft 392 kts 320°
2026-04-21 21:57 50.51790 17.43688 17834 ft 392 kts 320°
2026-04-21 21:57 50.53764 17.40744 17139 ft 391 kts 320°
2026-04-21 21:57 50.55706 17.37845 16488 ft 390 kts 320°
2026-04-21 21:58 50.57669 17.34912 15844 ft 389 kts 320°
2026-04-21 21:58 50.59627 17.31983 15213 ft 388 kts 320°
2026-04-21 21:58 50.61573 17.29067 14663 ft 384 kts 320°
2026-04-21 21:58 50.63501 17.26175 14122 ft 381 kts 320°
2026-04-21 21:59 50.65412 17.23304 13531 ft 378 kts 320°
2026-04-21 21:59 50.67308 17.20455 12941 ft 375 kts 320°
2026-04-21 21:59 50.69190 17.17621 12361 ft 373 kts 319°
2026-04-21 21:59 50.71058 17.14808 11783 ft 370 kts 319°
2026-04-21 22:00 50.72910 17.12014 11224 ft 367 kts 319°
2026-04-21 22:00 50.74748 17.09238 10675 ft 365 kts 319°
2026-04-21 22:00 50.76565 17.06491 10349 ft 356 kts 319°
2026-04-21 22:00 50.78315 17.03836 10250 ft 341 kts 319°
2026-04-21 22:01 50.79987 17.01297 10220 ft 326 kts 319°
2026-04-21 22:01 50.81535 16.98945 10219 ft 311 kts 320°
2026-04-21 22:01 50.83073 16.96609 9988 ft 304 kts 320°
2026-04-21 22:01 50.84567 16.94340 9972 ft 291 kts 320°
2026-04-21 22:02 50.86013 16.92143 9628 ft 289 kts 320°
2026-04-21 22:02 50.87468 16.89934 9189 ft 291 kts 319°
2026-04-21 22:02 50.88941 16.87696 8660 ft 296 kts 319°
2026-04-21 22:02 50.90435 16.85422 8139 ft 299 kts 319°
2026-04-21 22:03 50.91943 16.83121 7632 ft 302 kts 318°
2026-04-21 22:03 50.93463 16.80800 7129 ft 305 kts 318°
2026-04-21 22:03 50.94990 16.78465 6753 ft 303 kts 318°
2026-04-21 22:03 50.96487 16.76169 6495 ft 296 kts 318°
2026-04-21 22:04 50.97956 16.73915 6216 ft 291 kts 318°
2026-04-21 22:04 50.99397 16.71703 5931 ft 286 kts 318°
2026-04-21 22:04 51.00807 16.69538 5669 ft 281 kts 318°
2026-04-21 22:04 51.02200 16.67398 5417 ft 276 kts 318°
2026-04-21 22:05 51.03563 16.65302 5236 ft 269 kts 318°
2026-04-21 22:05 51.04893 16.63255 5049 ft 263 kts 318°
2026-04-21 22:05 51.06195 16.61250 4854 ft 258 kts 318°
2026-04-21 22:05 51.07461 16.59296 4714 ft 250 kts 318°
2026-04-21 22:06 51.08690 16.57400 4610 ft 242 kts 319°
2026-04-21 22:06 51.10066 16.56042 4482 ft 228 kts 348°
2026-04-21 22:06 51.11599 16.55956 4421 ft 217 kts
2026-04-21 22:06 51.12995 16.56701 4338 ft 207 kts 25°
2026-04-21 22:07 51.14251 16.57677 4233 ft 196 kts 25°
2026-04-21 22:07 51.15459 16.58611 4037 ft 188 kts 25°
2026-04-21 22:07 51.16615 16.59503 3847 ft 181 kts 25°
2026-04-21 22:07 51.17599 16.60658 3617 ft 176 kts 56°
2026-04-21 22:08 51.17947 16.62453 3480 ft 169 kts 86°
2026-04-21 22:08 51.17637 16.64221 3295 ft 166 kts 114°
2026-04-21 22:08 51.17134 16.65881 3121 ft 168 kts 111°
2026-04-21 22:08 51.16641 16.67569 2938 ft 168 kts 111°
2026-04-21 22:09 51.16143 16.69244 2744 ft 166 kts 111°
2026-04-21 22:09 51.15653 16.70874 2521 ft 165 kts 111°
2026-04-21 22:09 51.15158 16.72511 2313 ft 163 kts 110°
2026-04-21 22:09 51.14668 16.74137 2108 ft 162 kts 110°
2026-04-21 22:10 51.14184 16.75727 1905 ft 157 kts 110°
2026-04-21 22:10 51.13736 16.77197 1759 ft 143 kts 110°
2026-04-21 22:10 51.13300 16.78637 1687 ft 144 kts 110°
2026-04-21 22:10 51.12862 16.80078 1305 ft 144 kts 111°
2026-04-21 22:11 51.12431 16.81494 1120 ft 143 kts 113°
2026-04-21 22:11 51.12137 16.82463 965 ft 145 kts 114°
2026-04-21 22:11 51.11693 16.83936 751 ft 150 kts 114°
2026-04-21 22:11 51.11239 16.85414 580 ft 149 kts 116°
2026-04-21 22:12 51.10786 16.86895 406 ft 148 kts 116°
2026-04-21 22:12 51.10413 16.88106 403 ft 91 kts 116°
2026-04-21 22:12 51.10283 16.88574 404 ft 15 kts 100°
2026-04-21 22:12 51.10252 16.88620 403 ft 4 kts 205°
2026-04-21 22:13 51.10260 16.88585 403 ft 4 kts 306°
2026-04-21 22:13 51.10279 16.88538 404 ft 7 kts 299°
2026-04-21 22:13 51.10313 16.88438 404 ft 14 kts 296°
2026-04-21 22:13 51.10363 16.88271 405 ft 20 kts 296°
2026-04-21 22:14 51.10433 16.88044 401 ft 26 kts 296°
2026-04-21 22:14 51.10519 16.87765 398 ft 29 kts 296°
2026-04-21 22:14 51.10605 16.87482 401 ft 28 kts 296°
2026-04-21 22:14 51.10670 16.87268 402 ft 6 kts 296°
2026-04-21 22:15 51.10681 16.87238 400 ft 3 kts 311°
2026-04-21 22:15 51.10713 16.87240 403 ft 8 kts 27°
2026-04-21 22:15 51.10788 16.87299 402 ft 16 kts 26°
2026-04-21 22:15 51.10891 16.87381 402 ft 17 kts 26°
2026-04-21 22:16 51.10952 16.87468 403 ft 9 kts 102°
2026-04-21 22:16 51.10922 16.87563 402 ft 10 kts 116°
2026-04-21 22:16 51.10886 16.87678 402 ft 12 kts 116°
2026-04-21 22:16 51.10849 16.87796 402 ft 8 kts 115°
2026-04-21 22:17 51.10847 16.87846 402 ft 4 kts 46°
2026-04-21 22:17 51.10881 16.87869 402 ft 6 kts 26°
2026-04-21 22:17 51.10902 16.87884 402 ft 0 kts 26°